TIANZHOU-4 (52509 NORAD) Tracking and Keplerian Element Data

This shows tracking and keplerian element data for the satellite.

Feedback or suggestion? Click here.




ElementValue
Catalog52509
NameTIANZHOU-4
Epoch Orbit6449
Epoch Day166.42431351
Epoch Year2022
RAAN229.6505
Inclination41.4717
Eccentricity0.0004842
Argument of Perigee278.7193
Mean Anonmoly199.0868
Mean Motion15.60185964
Decay Rate0.00016665
L11 52509U 22050A 22166.42431351 .00016665 00000+0 20247-3 0 9991
L22 52509 41.4717 229.6505 0004842 278.7193 199.0868 15.60185964 64490

Live tracking and technical data element details for TIANZHOU-4 (NORAD 52509). TIANZHOU-4 can be tracked NOW for your location showing map with azimuth and elevation plus other details from your city location.

Track the satellite on the map from your city or location and see movement details for azimuth, elevation, latitude, longitude, range, height, and movement on the map or in text.







IsCatalogInMostPopularTable: catalog: 52509, numindb: 58
Update: records affected: 1



GetName: 52509 TIANZHOU-4

Hit Count: updated at: Sat, 25 Jun 2022 03:59:01 GMT